Regional Weather Roundup
Issued by NWS

Home | Current Version | Previous Version | Text Only | Print | Product List | Glossary On
Versions: 1 2 3 4 5 6 7 8 9 10 11 12 13 14 15 16 17 18 19 20 21 22 23 24 25 26 27 28 29 30 31 32 33 34 35 36 37 38 39 40 41 42 43 44 45 46 47 48 49 50
000
ASUS43 KDMX 032007
RWRIA

WEATHER ROUNDUP FOR IOWA
NATIONAL WEATHER SERVICE DES MOINES IA
300 PM CDT THU SEP 03 2015

NOTE: "FAIR" INDICATES FEW OR NO CLOUDS BELOW 12,000 FEET WITH NO
SIGNIFICANT WEATHER AND/OR OBSTRUCTIONS TO VISIBILITY.

* - THESE STATIONS ARE NOT NWS STATIONS...THUS NOT UNDER NWS
QUALITY CONTROL.  THEY ALSO DO NOT REPORT WEATHER SUCH
AS PRECIPITATION OR FOG.

IAZ001>003-012>014-020>022-031>034-043>046-032100-
   NORTHWEST IOWA

CITY           SKY/WX    TMP DP  RH WIND       PRES   REMARKS
CARROLL *      SUNNY     88  75  66 S12       29.85F HX  97
CHEROKEE *     SUNNY     86  73  66 S9        29.83F HX  93
DENISON *      SUNNY     86  73  66 S8G18     29.83S HX  93
LE MARS *      SUNNY     86  72  62 SE14      29.82F HX  92
ORANGE CITY *  SUNNY     86  73  66 S10       29.83F HX  93
SHELDON *      SUNNY     86  73  66 SE9G17    29.82F HX  93
SIOUX CITY     SUNNY     87  70  56 SE13      29.80F HX  92
SPENCER        MOSUNNY   87  72  60 SE14      29.85F HX  93
STORM LAKE *   SUNNY     84  73  70 S13G18    29.86S HX  91
$$

IAZ055>058-069>071-079>083-090>094-032100-
   SOUTHWEST IOWA

CITY           SKY/WX    TMP DP  RH WIND       PRES   REMARKS
ATLANTIC *     SUNNY     88  73  62 S12G17    29.85F HX  96
AUDUBON *      SUNNY     90  75  62 S9        29.87F HX 100
CLARINDA *     SUNNY     90  72  55 S13G20    29.88F HX  96
COUNCIL BLFS * SUNNY     90  72  55 S15       29.84F HX  96
CRESTON *      SUNNY     88  72  58 S13       29.90F HX  94
LAMONI         SUNNY     89  71  55 S13       29.91S HX  95
RED OAK *      SUNNY     90  72  55 S13G20    29.86F HX  96
SHENANDOAH *   SUNNY     91  72  52 S13G21    29.85F HX  98
$$

IAZ047>049-059>061-072>074-084-032100-
   CENTRAL IOWA

CITY           SKY/WX    TMP DP  RH WIND       PRES   REMARKS
AMES           SUNNY     89  72  56 S9        29.87F HX  96
ANKENY *       SUNNY     90  73  58 S9        29.87F HX  98
CHARITON *     SUNNY     90  72  55 S10       29.90F HX  96
DES MOINES     MOSUNNY   90  71  53 S12       29.87F HX  96
GRINNELL*      SUNNY     88  72  58 SW8       29.90F HX  94
KNOXVILLE *    SUNNY     88  72  58 S10       29.88F HX  94
MARSHALLTOWN   SUNNY     89  71  55 S9        29.88F HX  95
PELLA *        SUNNY     91  75  59 SW7       29.90S HX 102
PERRY *          N/A     90  72  55 S9        29.86F HX  96
$$

IAZ004>006-015-016-023>025-035-036-032100-
   NORTH CENTRAL IOWA

CITY           SKY/WX    TMP DP  RH WIND       PRES   REMARKS
ALGONA *       SUNNY     88  73  62 SE12G17   29.86F HX  96
CLARION *      SUNNY     88  75  66 S10       29.87F HX  97
ESTHERVILLE    SUNNY     85  73  67 S14       29.85F HX  91
FORT DODGE *   MOSUNNY   88  72  58 S8        29.87S HX  94
MASON CITY     SUNNY     88  74  63 S9        29.89F HX  96
FOREST CITY *  SUNNY     88  70  55 SE8       29.87F HX  92
IOWA FALLS *     N/A     90  72  55 S7        29.89F HX  96
$$

IAZ007>011-017>019-026>030-037>042-050>054-066-032100-
   NORTHEAST IOWA

CITY           SKY/WX    TMP DP  RH WIND       PRES   REMARKS
CEDAR RAPIDS   MOSUNNY   88  75  65 S8        29.90F HX  97
CHARLES CITY * SUNNY     88  77  70 S7G13     29.89F HX 100
CLINTON *      SUNNY     90  73  58 W7        29.93S HX  98
DECORAH *      MOSUNNY   86  73  66 VRB6      29.90S HX  93
DUBUQUE        SUNNY     87  73  62 SW7       29.92F HX  94
MONTICELLO *   SUNNY     90  75  62 S9        29.89F HX 100
OELWEIN *      SUNNY     88  73  62 S7        29.90F HX  96
WATERLOO       SUNNY     89  71  55 S10       29.87F HX  95
$$

IAZ064-065-067-068-078-032100-
   EAST CENTRAL IOWA

CITY           SKY/WX    TMP DP  RH WIND       PRES   REMARKS
DAVENPORT      SUNNY     89  71  55 SW10      29.91F HX  95
IOWA CITY      SUNNY     89  71  55 S8        29.91F HX  95
MT. PLEASANT * SUNNY     95  59  30 SW6       29.91F HX  94
MUSCATINE *    SUNNY     93  66  40 SW8G14    29.90F HX  96
QUAD CITIES    MOSUNNY   92  70  48 W9        29.90F HX  97
$$

IAZ062-063-075>077-085>089-095>099-032100-
   SOUTHEAST IOWA

CITY           SKY/WX    TMP DP  RH WIND       PRES   REMARKS
BURLINGTON     SUNNY     91  70  49 SW8       29.92F HX  96
FAIRFIELD *    SUNNY     91  68  46 SW10      29.91S HX  95
FORT MADISON * MOSUNNY   91  70  49 S8        29.92F HX  97
KEOKUK *       MOSUNNY   93  68  43 W13       29.91F HX  97
OSKALOOSA *      N/A     91  68  46 SW6       29.90S HX  95
CENTERVILLE *  SUNNY     88  73  62 S9        29.93F HX  96
OTTUMWA        SUNNY     90  73  57 SW9       29.88F HX  98
WASHINGTON *     N/A    N/A N/A N/A MISG        N/A
$$

ABBREVIATIONS USED IN REMARKS
   TC - TEMPERATURES IN CELSIUS
  WCI - WIND CHILL INDEX
   HX - HEAT INDEX
  VSB - VISIBILITY
$$



USA.gov is the U.S. government's official web portal to all federal, state and local government web resources and services.